Regional Weather Roundup
Issued by NWS Midland/Odessa, TX

Skip options and go directly to product.
Home | Oldest Version | Previous Version | Current Version | All | Graphics & Text | Save Text | Print | Product List | Glossary On

Skip product version selection by date and time.   
384
ASUS44 KMAF 311910
RWRMAF
MIDLAND AREA WEATHER ROUNDUP
NATIONAL WEATHER SERVICE MIDLAND TX
200 PM CDT MON AUG 31 2015

...IN SOUTHWEST TEXAS AND SOUTHEAST NEW MEXICO...

CITY           SKY/WX    TMP DP  RH WIND       PRES   REMARKS
ALPINE         SUNNY     89  44  20 E8        30.19F
ANDREWS        FAIR      88  53  30 S6        30.07F
ARTESIA        SUNNY     91  52  25 S13G23    30.04F
BIG SPRING     SUNNY     89  56  32 S14       30.06F
CARLSBAD       SUNNY     93  50  23 SE14G22   30.03F
DRYDEN           N/A     93  60  33 S15       30.00F
FORT STOCKTON  SUNNY     91  51  25 VRB6      30.04F
GUAD PASS      SUNNY     87  50  27 SW12G18   30.21F
HOBBS          SUNNY     86  45  23 SE9G17    30.09F
MARFA          SUNNY     84  46  26 E7        30.18F
MIDLAND AIRPK  SUNNY     91  53  27 SE7       30.06F
MIDLAND INTL   SUNNY     89  54  30 S8G21     30.05F
ODESSA         SUNNY     90  53  28 S12G20    30.06F
PECOS          SUNNY     93  48  21 NE5       30.02F
PRESIDIO       NOT AVBL
SEMINOLE       SUNNY     90  45  21 S10       30.09S
SNYDER         SUNNY     90  57  32 SE10      30.05S
WINK           SUNNY     92  50  23 SE9G18    30.03F
$$
...OTHER STATIONS IN TEXAS...

CITY           SKY/WX    TMP DP  RH WIND       PRES   REMARKS
ABILENE        MOSUNNY   91  60  35 S7G21     30.02F
AMARILLO       SUNNY     88  52  29 S20G29    30.05F
AUSTIN         PTSUNNY   90  63  40 S7        30.01S
BROWNSVILLE    LGT RAIN  82  76  81 E18G26    29.95F
CORPUS CHRISTI PTSUNNY   80  73  79 NW8       29.99S THUNDER
DALLAS FTW     MOSUNNY   93  60  33 SE9       30.00F
DEL RIO        SUNNY     95  63  34 SE14G20   29.96F
EL PASO        MOSUNNY   92  45  19 S7        30.07F
HOUSTON INT    CLOUDY    85  73  67 SE9       30.04F
LUBBOCK        SUNNY     89  51  27 S16       30.07F
SAN ANGELO     MOSUNNY   93  58  30 S12G18    30.02F
SAN ANTONIO    PTSUNNY   92  65  40 VRB3      30.01F
WACO           MOSUNNY   92  66  42 VRB6      30.02F
WICHITA FALLS  NOT AVBL
$$
...OTHER LOCATIONS IN NEW MEXICO...

CITY           SKY/WX    TMP DP  RH WIND       PRES   REMARKS
ALAMAGORDO     SUNNY     90  46  22 NW6       30.09F
ALBUQUERQUE    MOSUNNY   85  47  26 CALM      30.16F
CANNON AFB     SUNNY     90  50  25 S13G20    30.07F
CLOVIS         SUNNY     90  48  24 S14       30.09F
HOLLOMAN AFB   MOSUNNY   92  48  21 NW12      30.06F
ROSWELL        NOT AVBL
RUIDOSO        SUNNY     81  41  24 MISG      30.29F
SANTA FE       MOSUNNY   85  43  22 VRB5      30.21F
TRUTH OR CONSE PTSUNNY   87  51  28 CALM      30.13F
TUCUMCARI      SUNNY     92  52  25 S12       30.01F
$$

USA.gov is the U.S. government's official web portal to all federal, state and local government web resources and services.